• In Hungary
  • List of Countries
  • For 7 days
  • Water Temperature
  • Satellite Maps
  • Weather Map
  • News
  • Weather Widgets
  • user-avatar
    Login

    Hourly Weather San German

    Today, 20 October, Friday

    Time Temperature Precipitation Wind Pressure Humidity
    00:00 +27°C° 0 mm 6 mps 751 mmHg 82%
    01:00 +27°C° 0 mm 6 mps 751 mmHg 82%
    02:00 +27°C° 0 mm 6 mps 750 mmHg 83%
    03:00 +27°C° 0 mm 6 mps 750 mmHg 83%
    04:00 +27°C° 0 mm 6 mps 750 mmHg 83%
    05:00 +26°C° 0 mm 6 mps 750 mmHg 83%
    06:00 +27°C° 0 mm 6 mps 750 mmHg 81%
    07:00 +28°C° 0 mm 6 mps 751 mmHg 79%
    08:00 +28°C° 0 mm 6 mps 751 mmHg 77%
    09:00 +29°C° 0 mm 6 mps 751 mmHg 72%
    10:00 +30°C° 0 mm 6 mps 751 mmHg 68%
    11:00 +33°C° 0 mm 6 mps 752 mmHg 63%
    12:00 +33°C° 0 mm 6 mps 751 mmHg 62%
    13:00 +33°C° 0 mm 7 mps 751 mmHg 61%
    14:00 +33°C° 0 mm 7 mps 750 mmHg 60%
    15:00 +32°C° 0.1 mm 7 mps 750 mmHg 64%
    16:00 +32°C° 0.1 mm 6 mps 750 mmHg 67%
    17:00 +30°C° 0.1 mm 6 mps 749 mmHg 71%
    18:00 +29°C° 0 mm 6 mps 750 mmHg 74%
    19:00 +28°C° 0 mm 6 mps 750 mmHg 77%
    20:00 +27°C° 0 mm 6 mps 750 mmHg 79%
    21:00 +27°C° 0 mm 6 mps 750 mmHg 80%
    22:00 +26°C° 0 mm 5 mps 751 mmHg 81%
    23:00 +26°C° 0 mm 5 mps 751 mmHg 82%

    Tomorrow, 21 October, Saturday

    Time Temperature Precipitation Wind Pressure Humidity
    00:00 +26°C° 0 mm 5 mps 751 mmHg 83%
    01:00 +26°C° 0 mm 5 mps 750 mmHg 83%
    02:00 +26°C° 0 mm 4 mps 750 mmHg 84%
    03:00 +26°C° 0 mm 4 mps 750 mmHg 84%
    04:00 +26°C° 0 mm 4 mps 750 mmHg 84%
    05:00 +25°C° 0 mm 4 mps 750 mmHg 84%
    06:00 +26°C° 0 mm 4 mps 750 mmHg 81%
    07:00 +27°C° 0 mm 5 mps 751 mmHg 79%
    08:00 +28°C° 0 mm 5 mps 751 mmHg 76%
    09:00 +29°C° 0 mm 5 mps 752 mmHg 70%
    10:00 +30°C° 0 mm 6 mps 752 mmHg 64%
    11:00 +32°C° 0 mm 6 mps 752 mmHg 58%
    12:00 +32°C° 0 mm 6 mps 752 mmHg 58%
    13:00 +33°C° 0 mm 6 mps 751 mmHg 58%
    14:00 +33°C° 0 mm 7 mps 751 mmHg 58%
    15:00 +32°C° 0 mm 7 mps 750 mmHg 62%
    16:00 +30°C° 0 mm 6 mps 750 mmHg 66%
    17:00 +30°C° 0 mm 6 mps 750 mmHg 69%
    18:00 +29°C° 0.1 mm 6 mps 751 mmHg 72%
    19:00 +28°C° 0.1 mm 6 mps 751 mmHg 75%
    20:00 +27°C° 0.1 mm 6 mps 752 mmHg 78%
    21:00 +27°C° 0 mm 6 mps 752 mmHg 78%
    22:00 +26°C° 0 mm 6 mps 752 mmHg 79%
    23:00 +26°C° 0 mm 6 mps 752 mmHg 79%

    Day after tomorrow, 22 October, Sunday

    Time Temperature Precipitation Wind Pressure Humidity
    00:00 +26°C° 0 mm 6 mps 752 mmHg 80%
    01:00 +26°C° 0 mm 5 mps 752 mmHg 80%
    02:00 +26°C° 0 mm 5 mps 751 mmHg 81%
    03:00 +26°C° 0 mm 5 mps 751 mmHg 81%
    04:00 +26°C° 0 mm 5 mps 751 mmHg 81%
    05:00 +26°C° 0 mm 5 mps 751 mmHg 82%
    06:00 +26°C° 0 mm 6 mps 751 mmHg 79%
    07:00 +27°C° 0 mm 6 mps 752 mmHg 77%
    08:00 +28°C° 0 mm 6 mps 752 mmHg 74%
    09:00 +29°C° 0 mm 6 mps 752 mmHg 69%
    10:00 +30°C° 0 mm 7 mps 752 mmHg 64%
    11:00 +32°C° 0 mm 7 mps 753 mmHg 58%
    12:00 +32°C° 0 mm 7 mps 752 mmHg 58%
    13:00 +33°C° 0 mm 7 mps 752 mmHg 57%
    14:00 +33°C° 0 mm 7 mps 751 mmHg 56%
    15:00 +32°C° 0 mm 7 mps 751 mmHg 60%
    16:00 +30°C° 0 mm 6 mps 751 mmHg 64%
    17:00 +30°C° 0 mm 6 mps 751 mmHg 67%
    18:00 +29°C° 0 mm 6 mps 751 mmHg 71%
    19:00 +27°C° 0 mm 6 mps 751 mmHg 75%
    20:00 +26°C° 0 mm 6 mps 752 mmHg 79%
    21:00 +26°C° 0 mm 5 mps 752 mmHg 80%
    22:00 +26°C° 0 mm 5 mps 752 mmHg 81%
    23:00 +26°C° 0 mm 5 mps 752 mmHg 82%

    23 October, Monday

    Time Temperature Precipitation Wind Pressure Humidity
    00:00 +25°C° 0 mm 5 mps 752 mmHg 82%
    01:00 +25°C° 0 mm 5 mps 751 mmHg 82%
    02:00 +25°C° 0 mm 5 mps 751 mmHg 82%
    03:00 +25°C° 0 mm 4 mps 751 mmHg 83%
    04:00 +25°C° 0 mm 4 mps 751 mmHg 83%
    05:00 +25°C° 0 mm 4 mps 751 mmHg 83%
    06:00 +26°C° 0 mm 4 mps 751 mmHg 81%
    07:00 +26°C° 0 mm 4 mps 751 mmHg 78%
    08:00 +27°C° 0 mm 5 mps 752 mmHg 76%
    09:00 +29°C° 0 mm 5 mps 752 mmHg 70%
    10:00 +30°C° 0 mm 5 mps 752 mmHg 64%
    11:00 +32°C° 0 mm 5 mps 752 mmHg 58%
    12:00 +33°C° 0 mm 5 mps 751 mmHg 58%
    13:00 +33°C° 0 mm 5 mps 750 mmHg 58%
    14:00 +33°C° 0 mm 5 mps 750 mmHg 58%
    15:00 +32°C° 0.1 mm 5 mps 749 mmHg 63%
    16:00 +30°C° 0.1 mm 5 mps 749 mmHg 68%
    17:00 +29°C° 0.1 mm 5 mps 749 mmHg 72%
    18:00 +28°C° 0.1 mm 5 mps 749 mmHg 76%
    19:00 +27°C° 0.1 mm 5 mps 749 mmHg 79%
    20:00 +26°C° 0.1 mm 5 mps 750 mmHg 82%
    21:00 +26°C° 0 mm 4 mps 750 mmHg 83%
    22:00 +26°C° 0 mm 4 mps 750 mmHg 85%
    23:00 +26°C° 0 mm 4 mps 750 mmHg 86%

    24 October, Tuesday

    Time Temperature Precipitation Wind Pressure Humidity
    00:00 +25°C° 0 mm 4 mps 750 mmHg 86%
    01:00 +25°C° 0 mm 4 mps 749 mmHg 86%
    02:00 +25°C° 0 mm 4 mps 749 mmHg 87%
    03:00 +25°C° 0 mm 3 mps 749 mmHg 87%
    04:00 +25°C° 0 mm 3 mps 749 mmHg 87%
    05:00 +25°C° 0 mm 3 mps 749 mmHg 87%
    06:00 +26°C° 0 mm 4 mps 749 mmHg 84%
    07:00 +27°C° 0 mm 4 mps 750 mmHg 81%
    08:00 +27°C° 0 mm 4 mps 750 mmHg 78%
    09:00 +29°C° 0 mm 4 mps 750 mmHg 71%
    10:00 +30°C° 0 mm 4 mps 750 mmHg 65%
    11:00 +32°C° 0 mm 4 mps 750 mmHg 58%
    12:00 +32°C° 0 mm 4 mps 750 mmHg 58%
    13:00 +33°C° 0 mm 4 mps 749 mmHg 58%
    14:00 +33°C° 0 mm 4 mps 748 mmHg 59%
    15:00 +32°C° 0 mm 4 mps 748 mmHg 63%
    16:00 +30°C° 0 mm 4 mps 748 mmHg 67%
    17:00 +29°C° 0 mm 4 mps 748 mmHg 71%
    18:00 +29°C° 0 mm 4 mps 748 mmHg 75%
    19:00 +28°C° 0 mm 4 mps 749 mmHg 79%
    20:00 +27°C° 0 mm 4 mps 749 mmHg 83%
    21:00 +27°C° 0 mm 4 mps 749 mmHg 84%
    22:00 +26°C° 0 mm 4 mps 749 mmHg 85%
    23:00 +26°C° 0 mm 4 mps 750 mmHg 86%

    25 October, Wednesday

    Time Temperature Precipitation Wind Pressure Humidity
    00:00 +26°C° 0.1 mm 4 mps 749 mmHg 86%
    01:00 +26°C° 0.1 mm 4 mps 749 mmHg 86%
    02:00 +26°C° 0.1 mm 4 mps 749 mmHg 86%
    03:00 +26°C° 0.1 mm 4 mps 749 mmHg 87%
    04:00 +26°C° 0.1 mm 4 mps 749 mmHg 87%
    05:00 +26°C° 0.1 mm 4 mps 748 mmHg 87%
    06:00 +26°C° 0 mm 4 mps 749 mmHg 85%
    07:00 +27°C° 0 mm 4 mps 749 mmHg 82%
    08:00 +28°C° 0 mm 4 mps 750 mmHg 79%
    09:00 +29°C° 0.1 mm 4 mps 750 mmHg 74%
    10:00 +30°C° 0.1 mm 4 mps 750 mmHg 69%
    11:00 +33°C° 0.1 mm 4 mps 750 mmHg 64%
    12:00 +33°C° 0.1 mm 5 mps 749 mmHg 64%
    13:00 +33°C° 0.1 mm 5 mps 749 mmHg 64%
    14:00 +33°C° 0.1 mm 5 mps 748 mmHg 64%
    15:00 +32°C° 0.1 mm 5 mps 748 mmHg 67%
    16:00 +32°C° 0.1 mm 5 mps 748 mmHg 70%
    17:00 +30°C° 0.1 mm 4 mps 748 mmHg 72%
    18:00 +29°C° 0.1 mm 4 mps 749 mmHg 76%
    19:00 +28°C° 0.1 mm 4 mps 749 mmHg 80%
    20:00 +27°C° 0.1 mm 4 mps 749 mmHg 84%
    21:00 +27°C° 0.1 mm 4 mps 750 mmHg 84%
    22:00 +27°C° 0.1 mm 4 mps 750 mmHg 85%
    23:00 +27°C° 0.1 mm 4 mps 750 mmHg 85%
    Show more